sat.trackr.live / text

‹ back to catalog

STARLINK-11646 [DTC]

NORAD 63186 · 2025-048D

PAYLOAD ACTIVE UNKNOWN

§ Identity

Operator
Country
US
Launch date
2025-03-13
Launch site
AFETR
Launch vehicle
Mass (kg)
RCS (m²)

Purposes: comms

External: N2YO · Heavens-Above · Gunter

§ Orbital elements

Epoch: 2026-09-20T22:39:03.567456Z

Period
91.67 min
Inclination
42.9995°
Eccentricity
0.0001757
Mean motion
15.70854162 rev/d
Perigee alt
355.3 km
Apogee alt
357.6 km
Semi-major
6,734.6 km
B*
1.0832e-3
RAAN
222.6055°
Arg perigee
187.1238°
Mean anomaly
172.9605°
Rev number
8,923

§ Raw data

STARLINK-11646 [DTC]1 63186U 25048D   26263.94379129  .00141002  00000+0  10832-2 0  99992 63186  42.9995 222.6055 0001757 187.1238 172.9605 15.70854162 89237

JSON: /api/v1/satellites/63186 · /tle

For live sub-satellite position, see the globe view (requires WebGL).

§ Visibility from observer

Set your observer location to see the next 7 days of passes ≥ 10°. The values pass through the URL so the page stays shareable.

No JS? Fill the form by hand. The geolocation button needs JavaScript.